Time,TemperatureF,DewpointF,PressureIn,WindDirection,WindDirectionDegrees,WindSpeedMPH,WindSpeedGustMPH,Humidity,HourlyPrecipIn,Conditions,Clouds,dailyrainin,SoftwareType,DateUTC
2013-01-20 00:58:00,21.7,8.8,29.40,NW,315,0.0,0.0,57,0.00,,,0.00,WUHU21623XXSP,2013-01-20 06:58:00,
2013-01-20 01:58:00,19.9,8.3,29.42,NE,45,0.0,0.0,60,0.00,,,0.00,WUHU21623XXSP,2013-01-20 07:58:00,
2013-01-20 02:58:00,18.3,7.1,29.46,West,270,3.4,3.4,61,0.00,,,0.00,WUHU21623XXSP,2013-01-20 08:58:00,
2013-01-20 03:58:00,16.3,5.2,29.49,NNE,23,3.8,3.8,61,0.00,,,0.00,WUHU21623XXSP,2013-01-20 09:58:00,
2013-01-20 04:58:00,15.1,5.2,29.49,NNW,338,0.9,0.9,64,0.00,,,0.00,WUHU21623XXSP,2013-01-20 10:58:00,
2013-01-20 05:58:00,14.0,4.1,29.51,NW,315,1.3,1.3,64,0.00,,,0.00,WUHU21623XXSP,2013-01-20 11:58:00,
2013-01-20 06:58:00,13.6,4.4,29.53,NW,315,0.0,0.0,66,0.00,,,0.00,WUHU21623XXSP,2013-01-20 12:58:00,
2013-01-20 07:16:00,13.3,4.0,29.53,NNW,337,0.0,0.0,66,0.00,,,0.00,WUHU21623XXSP,2013-01-20 13:16:00,
2013-01-20 07:21:00,13.3,4.0,29.54,NNW,337,0.0,0.0,66,0.00,,,0.00,WUHU21623XXSP,2013-01-20 13:21:00,
2013-01-20 07:26:00,13.3,4.0,29.53,NE,45,0.0,0.0,66,0.00,,,0.00,WUHU21623XXSP,2013-01-20 13:26:00,
2013-01-20 07:31:00,13.3,4.0,29.52,NE,45,0.0,4.5,66,0.00,,,0.00,WUHU21623XXSP,2013-01-20 13:31:00,
2013-01-20 07:36:00,12.9,3.6,29.53,North,0,3.4,4.5,66,0.00,,,0.00,WUHU21623XXSP,2013-01-20 13:36:00,
2013-01-20 07:41:00,12.9,3.6,29.52,NE,45,3.8,3.8,66,0.00,,,0.00,WUHU21623XXSP,2013-01-20 13:41:00,
2013-01-20 07:46:00,12.7,3.5,29.53,North,0,0.0,3.8,66,0.00,,,0.00,WUHU21623XXSP,2013-01-20 13:46:00,
2013-01-20 07:51:00,12.9,3.6,29.53,NNE,22,0.0,0.0,66,0.00,,,0.00,WUHU21623XXSP,2013-01-20 13:51:00,
2013-01-20 07:56:00,12.9,3.6,29.53,NNW,337,4.7,6.7,66,0.00,,,0.00,WUHU21623XXSP,2013-01-20 13:56:00,
2013-01-20 08:01:00,12.9,3.6,29.54,NE,45,0.0,6.7,66,0.00,,,0.00,WUHU21623XXSP,2013-01-20 14:01:00,
2013-01-20 08:06:00,12.9,3.6,29.54,NNE,22,0.0,3.6,66,0.00,,,0.00,WUHU21623XXSP,2013-01-20 14:06:00,
2013-01-20 08:11:00,13.1,3.8,29.54,NNW,337,0.0,3.6,66,0.00,,,0.00,WUHU21623XXSP,2013-01-20 14:11:00,
2013-01-20 08:16:00,13.3,4.0,29.54,NNW,337,0.0,1.8,66,0.00,,,0.00,WUHU21623XXSP,2013-01-20 14:16:00,
2013-01-20 08:21:00,13.3,4.0,29.56,NW,315,4.5,4.5,66,0.00,,,0.00,WUHU21623XXSP,2013-01-20 14:21:00,
2013-01-20 08:26:00,13.3,4.0,29.56,NNE,22,2.7,4.5,66,0.00,,,0.00,WUHU21623XXSP,2013-01-20 14:26:00,
2013-01-20 08:31:00,13.6,4.4,29.56,NNE,22,1.8,4.5,66,0.00,,,0.00,WUHU21623XXSP,2013-01-20 14:31:00,
2013-01-20 08:36:00,13.8,4.5,29.56,NE,45,5.1,5.1,66,0.00,,,0.00,WUHU21623XXSP,2013-01-20 14:36:00,
2013-01-20 08:41:00,14.2,4.9,29.56,NE,45,0.0,5.1,66,0.00,,,0.00,WUHU21623XXSP,2013-01-20 14:41:00,
2013-01-20 08:46:00,14.4,4.9,29.56,NNE,22,0.0,4.3,66,0.00,,,0.00,WUHU21623XXSP,2013-01-20 14:46:00,
2013-01-20 08:51:00,14.9,5.2,29.56,NNE,22,0.0,0.0,65,0.00,,,0.00,WUHU21623XXSP,2013-01-20 14:51:00,
2013-01-20 08:56:00,15.1,5.2,29.56,NNW,337,0.0,0.0,65,0.00,,,0.00,WUHU21623XXSP,2013-01-20 14:56:00,
2013-01-20 09:01:00,15.1,5.3,29.56,West,270,0.0,0.0,65,0.00,,,0.00,WUHU21623XXSP,2013-01-20 15:01:00,
2013-01-20 09:06:00,15.3,5.2,29.56,WNW,292,2.5,2.5,64,0.00,,,0.00,WUHU21623XXSP,2013-01-20 15:06:00,
2013-01-20 09:11:00,15.3,5.2,29.56,WNW,292,2.5,2.5,64,0.00,,,0.00,WUHU21623XXSP,2013-01-20 15:11:00,
2013-01-20 09:16:00,15.3,5.2,29.57,NNE,22,0.0,2.5,64,0.00,,,0.00,WUHU21623XXSP,2013-01-20 15:16:00,
2013-01-20 09:21:00,15.6,5.5,29.56,NE,45,2.9,2.9,64,0.00,,,0.00,WUHU21623XXSP,2013-01-20 15:21:00,
2013-01-20 09:26:00,16.0,5.8,29.56,NNE,22,0.0,2.9,64,0.00,,,0.00,WUHU21623XXSP,2013-01-20 15:26:00,
2013-01-20 09:31:00,16.0,5.8,29.56,NNE,22,0.0,0.0,64,0.00,,,0.00,WUHU21623XXSP,2013-01-20 15:31:00,
2013-01-20 09:36:00,16.2,5.7,29.56,North,0,0.0,4.9,63,0.00,,,0.00,WUHU21623XXSP,2013-01-20 15:36:00,
2013-01-20 09:41:00,16.3,5.8,29.56,NNW,337,1.1,4.9,63,0.00,,,0.00,WUHU21623XXSP,2013-01-20 15:41:00,
2013-01-20 09:46:00,16.3,5.8,29.57,NW,315,0.0,1.1,63,0.00,,,0.00,WUHU21623XXSP,2013-01-20 15:46:00,
2013-01-20 09:51:00,16.3,5.8,29.58,NNW,337,0.0,3.1,63,0.00,,,0.00,WUHU21623XXSP,2013-01-20 15:51:00,
2013-01-20 09:56:00,16.3,5.8,29.58,NNE,22,4.3,4.3,63,0.00,,,0.00,WUHU21623XXSP,2013-01-20 15:56:00,
2013-01-20 10:01:00,16.3,5.8,29.58,NNW,337,1.8,4.3,63,0.00,,,0.00,WUHU21623XXSP,2013-01-20 16:01:00,
2013-01-20 10:06:00,16.5,6.0,29.58,North,0,3.4,3.4,63,0.00,,,0.00,WUHU21623XXSP,2013-01-20 16:06:00,
2013-01-20 10:11:00,16.7,6.0,29.58,North,0,3.4,3.4,63,0.00,,,0.00,WUHU21623XXSP,2013-01-20 16:11:00,
2013-01-20 10:16:00,16.7,6.2,29.58,WSW,247,6.9,6.9,63,0.00,,,0.00,WUHU21623XXSP,2013-01-20 16:16:00,
2013-01-20 10:21:00,17.1,6.6,29.57,NW,315,1.8,6.9,63,0.00,,,0.00,WUHU21623XXSP,2013-01-20 16:21:00,
2013-01-20 10:26:00,17.4,6.9,29.57,West,270,0.0,2.7,63,0.00,,,0.00,WUHU21623XXSP,2013-01-20 16:26:00,
2013-01-20 10:31:00,17.8,7.3,29.57,NNW,337,6.0,6.0,63,0.00,,,0.00,WUHU21623XXSP,2013-01-20 16:31:00,
2013-01-20 10:36:00,18.0,7.1,29.57,North,0,3.6,6.0,62,0.00,,,0.00,WUHU21623XXSP,2013-01-20 16:36:00,
2013-01-20 10:41:00,18.1,7.3,29.57,NNE,22,0.0,6.0,62,0.00,,,0.00,WUHU21623XXSP,2013-01-20 16:41:00,
2013-01-20 10:46:00,18.1,6.9,29.56,NNW,337,3.4,4.3,61,0.00,,,0.00,WUHU21623XXSP,2013-01-20 16:46:00,
2013-01-20 10:51:00,18.7,7.7,29.56,West,270,6.5,6.5,62,0.00,,,0.00,WUHU21623XXSP,2013-01-20 16:51:00,
2013-01-20 10:56:00,18.7,7.7,29.56,NNE,22,0.0,6.5,62,0.00,,,0.00,WUHU21623XXSP,2013-01-20 16:56:00,
2013-01-20 11:01:00,19.0,7.7,29.56,NNE,22,0.0,0.0,61,0.00,,,0.00,WUHU21623XXSP,2013-01-20 17:01:00,
2013-01-20 11:06:00,19.2,7.5,29.56,WNW,292,0.0,3.6,60,0.00,,,0.00,WUHU21623XXSP,2013-01-20 17:06:00,
2013-01-20 11:11:00,19.2,7.5,29.56,North,0,0.0,3.6,60,0.00,,,0.00,WUHU21623XXSP,2013-01-20 17:11:00,
2013-01-20 11:16:00,19.2,7.5,29.56,NNW,337,0.0,0.0,60,0.00,,,0.00,WUHU21623XXSP,2013-01-20 17:16:00,
2013-01-20 11:21:00,19.6,7.9,29.56,NE,45,6.9,6.9,60,0.00,,,0.00,WUHU21623XXSP,2013-01-20 17:21:00,
2013-01-20 11:26:00,19.6,7.9,29.56,NE,45,0.0,6.9,60,0.00,,,0.00,WUHU21623XXSP,2013-01-20 17:26:00,
2013-01-20 11:31:00,19.6,7.9,29.56,NNW,337,2.9,6.7,60,0.00,,,0.00,WUHU21623XXSP,2013-01-20 17:31:00,
2013-01-20 11:36:00,19.9,7.8,29.56,NNW,337,4.7,6.7,59,0.00,,,0.00,WUHU21623XXSP,2013-01-20 17:36:00,
2013-01-20 11:41:00,19.9,7.8,29.56,NNW,337,0.0,4.7,59,0.00,,,0.00,WUHU21623XXSP,2013-01-20 17:41:00,
2013-01-20 11:46:00,19.9,7.4,29.56,WNW,292,0.0,4.7,58,0.00,,,0.00,WUHU21623XXSP,2013-01-20 17:46:00,
2013-01-20 11:51:00,20.3,7.4,29.56,NW,315,5.1,5.1,57,0.00,,,0.00,WUHU21623XXSP,2013-01-20 17:51:00,
2013-01-20 11:56:00,20.1,6.8,29.56,NNW,337,1.8,5.1,56,0.00,,,0.00,WUHU21623XXSP,2013-01-20 17:56:00,
2013-01-20 12:01:00,20.1,6.8,29.56,NW,315,0.0,5.1,56,0.00,,,0.00,WUHU21623XXSP,2013-01-20 18:01:00,
2013-01-20 12:06:00,20.1,6.8,29.55,West,270,0.0,5.1,56,0.00,,,0.00,WUHU21623XXSP,2013-01-20 18:06:00,
2013-01-20 12:11:00,19.9,6.6,29.55,NW,315,0.0,0.7,56,0.00,,,0.00,WUHU21623XXSP,2013-01-20 18:11:00,
2013-01-20 12:16:00,19.9,6.6,29.55,North,0,0.0,5.4,56,0.00,,,0.00,WUHU21623XXSP,2013-01-20 18:16:00,
2013-01-20 12:21:00,19.8,6.5,29.55,West,270,0.0,5.4,56,0.00,,,0.00,WUHU21623XXSP,2013-01-20 18:21:00,
2013-01-20 12:26:00,19.8,6.5,29.54,NNE,22,0.0,3.1,56,0.00,,,0.00,WUHU21623XXSP,2013-01-20 18:26:00,
2013-01-20 12:31:00,19.9,6.6,29.54,North,0,0.0,0.0,56,0.00,,,0.00,WUHU21623XXSP,2013-01-20 18:31:00,
2013-01-20 12:36:00,19.9,6.6,29.54,NNE,22,0.0,0.0,56,0.00,,,0.00,WUHU21623XXSP,2013-01-20 18:36:00,
2013-01-20 12:41:00,19.9,6.2,29.54,WNW,292,1.3,1.3,55,0.00,,,0.00,WUHU21623XXSP,2013-01-20 18:41:00,
2013-01-20 12:46:00,19.9,6.6,29.54,North,0,5.8,5.8,56,0.00,,,0.00,WUHU21623XXSP,2013-01-20 18:46:00,
2013-01-20 12:51:00,20.1,6.4,29.54,NW,315,0.0,5.8,55,0.00,,,0.00,WUHU21623XXSP,2013-01-20 18:51:00,
2013-01-20 12:56:00,20.1,6.4,29.54,North,0,0.0,4.5,55,0.00,,,0.00,WUHU21623XXSP,2013-01-20 18:56:00,
2013-01-20 13:01:00,20.1,6.4,29.54,NNE,22,0.0,4.5,55,0.00,,,0.00,WUHU21623XXSP,2013-01-20 19:01:00,
2013-01-20 13:06:00,20.3,6.6,29.54,NNW,337,1.6,1.6,55,0.00,,,0.00,WUHU21623XXSP,2013-01-20 19:06:00,
2013-01-20 13:11:00,20.5,6.7,29.54,West,270,0.0,1.6,55,0.00,,,0.00,WUHU21623XXSP,2013-01-20 19:11:00,
2013-01-20 13:16:00,20.7,6.9,29.54,North,0,2.9,2.9,55,0.00,,,0.00,WUHU21623XXSP,2013-01-20 19:16:00,
2013-01-20 13:21:00,21.0,6.8,29.54,NNW,337,0.0,2.9,54,0.00,,,0.00,WUHU21623XXSP,2013-01-20 19:21:00,
2013-01-20 13:26:00,21.0,6.8,29.54,NNW,337,0.0,4.7,54,0.00,,,0.00,WUHU21623XXSP,2013-01-20 19:26:00,
2013-01-20 13:31:00,21.0,7.3,29.54,WNW,292,0.0,4.7,55,0.00,,,0.00,WUHU21623XXSP,2013-01-20 19:31:00,
2013-01-20 13:36:00,21.0,7.3,29.54,NNW,337,3.1,5.1,55,0.00,,,0.00,WUHU21623XXSP,2013-01-20 19:36:00,
2013-01-20 13:41:00,21.0,7.3,29.54,NW,315,0.0,5.1,55,0.00,,,0.00,WUHU21623XXSP,2013-01-20 19:41:00,
2013-01-20 13:46:00,21.0,7.3,29.54,West,270,0.0,0.0,55,0.00,,,0.00,WUHU21623XXSP,2013-01-20 19:46:00,
2013-01-20 13:51:00,21.0,7.7,29.55,West,270,0.0,0.0,56,0.00,,,0.00,WUHU21623XXSP,2013-01-20 19:51:00,
2013-01-20 13:56:00,21.4,8.4,29.54,NNW,337,5.4,5.4,57,0.00,,,0.00,WUHU21623XXSP,2013-01-20 19:56:00,
2013-01-20 14:01:00,21.0,8.1,29.54,North,0,3.8,5.4,57,0.00,,,0.00,WUHU21623XXSP,2013-01-20 20:01:00,
2013-01-20 14:06:00,20.8,8.3,29.54,WNW,292,0.0,4.3,58,0.00,,,0.00,WUHU21623XXSP,2013-01-20 20:06:00,
2013-01-20 14:11:00,20.8,8.7,29.54,West,270,0.0,4.3,59,0.00,,,0.00,WUHU21623XXSP,2013-01-20 20:11:00,
2013-01-20 14:16:00,20.8,9.1,29.54,NNE,22,3.1,3.1,60,0.00,,,0.00,WUHU21623XXSP,2013-01-20 20:16:00,
2013-01-20 14:21:00,20.5,8.8,29.54,West,270,0.0,3.1,60,0.00,,,0.00,WUHU21623XXSP,2013-01-20 20:21:00,
2013-01-20 14:26:00,20.8,9.5,29.54,NW,315,0.0,3.8,61,0.00,,,0.00,WUHU21623XXSP,2013-01-20 20:26:00,
2013-01-20 14:31:00,20.8,9.8,29.55,NW,315,0.0,3.8,62,0.00,,,0.00,WUHU21623XXSP,2013-01-20 20:31:00,
2013-01-20 14:36:00,20.5,9.5,29.55,West,270,0.0,0.0,62,0.00,,,0.00,WUHU21623XXSP,2013-01-20 20:36:00,
2013-01-20 14:41:00,20.5,9.5,29.54,NW,315,0.0,4.0,62,0.00,,,0.00,WUHU21623XXSP,2013-01-20 20:41:00,
2013-01-20 14:46:00,20.3,9.3,29.54,NW,315,0.0,4.0,62,0.00,,,0.00,WUHU21623XXSP,2013-01-20 20:46:00,
2013-01-20 14:51:00,20.1,9.4,29.55,WNW,292,0.0,0.0,63,0.00,,,0.00,WUHU21623XXSP,2013-01-20 20:51:00,
2013-01-20 14:57:00,20.5,9.8,29.54,WNW,292,0.0,0.0,63,0.00,,,0.00,WUHU21623XXSP,2013-01-20 20:57:00,
2013-01-20 15:02:00,20.3,9.6,29.54,West,270,0.0,3.4,63,0.00,,,0.00,WUHU21623XXSP,2013-01-20 21:02:00,
2013-01-20 15:07:00,20.3,9.6,29.54,NW,315,0.0,3.4,63,0.00,,,0.00,WUHU21623XXSP,2013-01-20 21:07:00,
2013-01-20 15:12:00,20.1,9.4,29.54,WNW,292,0.0,0.0,63,0.00,,,0.00,WUHU21623XXSP,2013-01-20 21:12:00,
2013-01-20 15:17:00,20.1,9.4,29.54,NNW,337,0.0,4.0,63,0.00,,,0.00,WUHU21623XXSP,2013-01-20 21:17:00,
2013-01-20 15:22:00,20.1,9.4,29.54,NNW,337,0.0,4.0,63,0.00,,,0.00,WUHU21623XXSP,2013-01-20 21:22:00,
2013-01-20 15:27:00,19.9,9.6,29.55,WNW,292,3.4,3.4,64,0.00,,,0.00,WUHU21623XXSP,2013-01-20 21:27:00,
2013-01-20 15:32:00,19.6,9.6,29.55,NW,315,3.4,3.4,65,0.00,,,0.00,WUHU21623XXSP,2013-01-20 21:32:00,
2013-01-20 15:37:00,19.6,9.6,29.54,West,270,2.5,3.4,65,0.00,,,0.00,WUHU21623XXSP,2013-01-20 21:37:00,
2013-01-20 15:42:00,19.2,9.4,29.55,WNW,292,6.0,6.0,65,0.00,,,0.00,WUHU21623XXSP,2013-01-20 21:42:00,
2013-01-20 15:47:00,19.2,9.2,29.55,WSW,247,6.0,6.0,65,0.00,,,0.00,WUHU21623XXSP,2013-01-20 21:47:00,
2013-01-20 15:52:00,19.2,9.2,29.55,West,270,1.1,6.0,65,0.00,,,0.00,WUHU21623XXSP,2013-01-20 21:52:00,
2013-01-20 15:57:00,19.2,9.6,29.55,West,270,4.3,4.3,66,0.00,,,0.00,WUHU21623XXSP,2013-01-20 21:57:00,
2013-01-20 16:02:00,19.0,9.4,29.55,West,270,0.0,5.1,67,0.00,,,0.00,WUHU21623XXSP,2013-01-20 22:02:00,
2013-01-20 16:07:00,19.0,9.8,29.55,NW,315,4.9,5.1,67,0.00,,,0.00,WUHU21623XXSP,2013-01-20 22:07:00,
2013-01-20 16:12:00,18.9,9.8,29.55,West,270,4.7,4.9,67,0.00,,,0.00,WUHU21623XXSP,2013-01-20 22:12:00,
2013-01-20 16:17:00,18.7,9.8,29.54,West,270,0.0,4.7,68,0.00,,,0.00,WUHU21623XXSP,2013-01-20 22:17:00,
2013-01-20 16:22:00,18.9,9.9,29.54,WNW,292,3.6,4.7,68,0.00,,,0.00,WUHU21623XXSP,2013-01-20 22:22:00,
2013-01-20 16:27:00,19.2,10.1,29.54,NW,315,0.0,3.6,68,0.00,,,0.00,WUHU21623XXSP,2013-01-20 22:27:00,
2013-01-20 16:32:00,19.0,9.9,29.54,WNW,292,0.0,0.0,67,0.00,,,0.00,WUHU21623XXSP,2013-01-20 22:32:00,
2013-01-20 16:37:00,18.9,9.6,29.54,NW,315,4.3,4.3,67,0.00,,,0.00,WUHU21623XXSP,2013-01-20 22:37:00,
2013-01-20 16:42:00,18.5,9.3,29.54,NNW,337,1.6,4.3,67,0.00,,,0.00,WUHU21623XXSP,2013-01-20 22:42:00,
2013-01-20 16:47:00,18.3,9.5,29.54,West,270,0.0,1.6,68,0.00,,,0.00,WUHU21623XXSP,2013-01-20 22:47:00,
2013-01-20 16:52:00,18.3,9.5,29.54,NW,315,0.0,0.0,68,0.00,,,0.00,WUHU21623XXSP,2013-01-20 22:52:00,
2013-01-20 16:57:00,18.1,9.3,29.54,NNW,337,0.0,0.0,68,0.00,,,0.00,WUHU21623XXSP,2013-01-20 22:57:00,
2013-01-20 17:02:00,18.0,9.5,29.54,West,270,0.0,0.0,69,0.00,,,0.00,WUHU21623XXSP,2013-01-20 23:02:00,
2013-01-20 17:07:00,18.0,9.5,29.54,West,270,0.0,0.0,69,0.00,,,0.00,WUHU21623XXSP,2013-01-20 23:07:00,
2013-01-20 17:12:00,18.0,9.5,29.54,West,270,2.9,2.9,69,0.00,,,0.00,WUHU21623XXSP,2013-01-20 23:12:00,
2013-01-20 17:17:00,18.0,9.5,29.54,West,270,2.9,2.9,69,0.00,,,0.00,WUHU21623XXSP,2013-01-20 23:17:00,
2013-01-20 17:22:00,17.8,9.7,29.54,West,270,3.6,3.6,70,0.00,,,0.00,WUHU21623XXSP,2013-01-20 23:22:00,
2013-01-20 17:27:00,17.8,9.7,29.54,NW,315,0.0,3.6,70,0.00,,,0.00,WUHU21623XXSP,2013-01-20 23:27:00,
2013-01-20 17:32:00,17.8,9.7,29.54,NW,315,0.0,0.0,71,0.00,,,0.00,WUHU21623XXSP,2013-01-20 23:32:00,
2013-01-20 17:37:00,17.4,9.3,29.54,West,270,7.6,7.6,70,0.00,,,0.00,WUHU21623XXSP,2013-01-20 23:37:00,
2013-01-20 17:42:00,17.4,9.3,29.54,West,270,0.0,7.6,70,0.00,,,0.00,WUHU21623XXSP,2013-01-20 23:42:00,
2013-01-20 17:47:00,17.4,9.3,29.54,NW,315,0.0,0.9,70,0.00,,,0.00,WUHU21623XXSP,2013-01-20 23:47:00,
2013-01-20 17:52:00,17.4,9.3,29.54,West,270,0.0,0.9,70,0.00,,,0.00,WUHU21623XXSP,2013-01-20 23:52:00,
2013-01-20 17:57:00,17.2,9.1,29.54,West,270,1.1,3.1,70,0.00,,,0.00,WUHU21623XXSP,2013-01-20 23:57:00,
2013-01-20 18:02:00,17.4,9.3,29.54,West,270,1.1,3.1,71,0.00,,,0.00,WUHU21623XXSP,2013-01-21 00:02:00,
2013-01-20 18:07:00,17.2,9.4,29.54,West,270,0.0,4.5,71,0.00,,,0.00,WUHU21623XXSP,2013-01-21 00:07:00,
2013-01-20 18:13:00,17.2,9.1,29.54,West,270,0.0,4.5,70,0.00,,,0.00,WUHU21623XXSP,2013-01-21 00:13:00,
2013-01-20 18:18:00,17.2,9.1,29.54,NW,315,0.0,4.9,70,0.00,,,0.00,WUHU21623XXSP,2013-01-21 00:18:00,
2013-01-20 18:23:00,17.2,9.1,29.53,North,0,0.0,4.9,70,0.00,,,0.00,WUHU21623XXSP,2013-01-21 00:23:00,
2013-01-20 18:28:00,16.9,9.2,29.53,NNW,337,0.0,3.1,70,0.00,,,0.00,WUHU21623XXSP,2013-01-21 00:28:00,
2013-01-20 18:33:00,16.9,9.1,29.53,WNW,292,4.5,4.5,71,0.00,,,0.00,WUHU21623XXSP,2013-01-21 00:33:00,
2013-01-20 18:38:00,16.9,8.8,29.53,NNW,337,0.0,5.4,70,0.00,,,0.00,WUHU21623XXSP,2013-01-21 00:38:00,
2013-01-20 18:43:00,17.1,9.0,29.53,NW,315,0.0,5.4,70,0.00,,,0.00,WUHU21623XXSP,2013-01-21 00:43:00,
2013-01-20 18:48:00,17.1,9.0,29.53,West,270,1.6,1.6,70,0.00,,,0.00,WUHU21623XXSP,2013-01-21 00:48:00,
2013-01-20 18:53:00,16.9,8.4,29.53,WNW,292,0.0,5.4,69,0.00,,,0.00,WUHU21623XXSP,2013-01-21 00:53:00,
2013-01-20 18:58:00,16.9,8.8,29.53,NW,315,6.5,6.5,70,0.00,,,0.00,WUHU21623XXSP,2013-01-21 00:58:00,
2013-01-20 19:03:00,16.9,8.4,29.53,West,270,4.7,6.5,69,0.00,,,0.00,WUHU21623XXSP,2013-01-21 01:03:00,
2013-01-20 19:08:00,16.9,8.4,29.53,West,270,0.0,4.7,69,0.00,,,0.00,WUHU21623XXSP,2013-01-21 01:08:00,
2013-01-20 19:13:00,16.9,8.8,29.53,West,270,0.0,0.0,70,0.00,,,0.00,WUHU21623XXSP,2013-01-21 01:13:00,
2013-01-20 19:18:00,16.9,8.4,29.53,West,270,0.0,4.0,69,0.00,,,0.00,WUHU21623XXSP,2013-01-21 01:18:00,
2013-01-20 19:23:00,16.7,8.6,29.53,WNW,292,0.0,4.5,70,0.00,,,0.00,WUHU21623XXSP,2013-01-21 01:23:00,
2013-01-20 19:28:00,16.7,8.6,29.53,West,270,0.0,4.5,70,0.00,,,0.00,WUHU21623XXSP,2013-01-21 01:28:00,
2013-01-20 19:33:00,16.5,8.4,29.53,NNW,337,5.4,5.4,70,0.00,,,0.00,WUHU21623XXSP,2013-01-21 01:33:00,
2013-01-20 19:38:00,16.5,8.4,29.53,NNE,22,1.6,5.4,70,0.00,,,0.00,WUHU21623XXSP,2013-01-21 01:38:00,
2013-01-20 19:43:00,16.3,8.2,29.53,West,270,5.8,5.8,70,0.00,,,0.00,WUHU21623XXSP,2013-01-21 01:43:00,
2013-01-20 19:48:00,16.3,8.2,29.53,WNW,292,0.0,5.8,70,0.00,,,0.00,WUHU21623XXSP,2013-01-21 01:48:00,
2013-01-20 19:53:00,16.3,8.2,29.53,NW,315,0.0,4.3,70,0.00,,,0.00,WUHU21623XXSP,2013-01-21 01:53:00,
2013-01-20 19:58:00,16.2,8.1,29.53,WSW,247,2.5,4.0,70,0.00,,,0.00,WUHU21623XXSP,2013-01-21 01:58:00,
2013-01-20 20:03:00,16.2,8.1,29.53,West,270,3.6,3.6,70,0.00,,,0.00,WUHU21623XXSP,2013-01-21 02:03:00,
2013-01-20 20:08:00,16.2,8.1,29.53,West,270,5.6,5.6,70,0.00,,,0.00,WUHU21623XXSP,2013-01-21 02:08:00,
2013-01-20 20:13:00,16.2,8.3,29.53,West,270,0.0,5.6,71,0.00,,,0.00,WUHU21623XXSP,2013-01-21 02:13:00,
2013-01-20 20:18:00,16.2,8.3,29.53,NW,315,4.0,4.0,71,0.00,,,0.00,WUHU21623XXSP,2013-01-21 02:18:00,
2013-01-20 20:23:00,16.2,8.3,29.53,WNW,292,0.0,4.0,71,0.00,,,0.00,WUHU21623XXSP,2013-01-21 02:23:00,
2013-01-20 20:28:00,16.0,8.2,29.53,WNW,292,0.0,4.0,71,0.00,,,0.00,WUHU21623XXSP,2013-01-21 02:28:00,
2013-01-20 20:33:00,16.0,8.2,29.53,NW,315,3.1,3.1,71,0.00,,,0.00,WUHU21623XXSP,2013-01-21 02:33:00,
2013-01-20 20:38:00,16.0,8.2,29.52,WNW,292,0.9,3.1,71,0.00,,,0.00,WUHU21623XXSP,2013-01-21 02:38:00,
2013-01-20 20:43:00,15.8,8.0,29.53,NNW,337,5.1,5.1,71,0.00,,,0.00,WUHU21623XXSP,2013-01-21 02:43:00,
2013-01-20 20:48:00,15.6,7.8,29.53,NW,315,4.7,5.1,71,0.00,,,0.00,WUHU21623XXSP,2013-01-21 02:48:00,
2013-01-20 20:53:00,15.6,7.8,29.53,WNW,292,3.6,7.2,71,0.00,,,0.00,WUHU21623XXSP,2013-01-21 02:53:00,
2013-01-20 20:58:00,15.4,7.4,29.53,North,0,2.5,7.2,70,0.00,,,0.00,WUHU21623XXSP,2013-01-21 02:58:00,
2013-01-20 21:03:00,15.4,7.4,29.53,North,0,3.1,3.4,70,0.00,,,0.00,WUHU21623XXSP,2013-01-21 03:03:00,
2013-01-20 21:08:00,15.6,7.5,29.53,NNW,337,7.4,7.4,70,0.00,,,0.00,WUHU21623XXSP,2013-01-21 03:08:00,
2013-01-20 21:13:00,15.4,7.0,29.53,WNW,292,6.7,7.4,69,0.00,,,0.00,WUHU21623XXSP,2013-01-21 03:13:00,
2013-01-20 21:18:00,15.4,7.0,29.52,West,270,0.0,6.7,69,0.00,,,0.00,WUHU21623XXSP,2013-01-21 03:18:00,
2013-01-20 21:23:00,15.1,6.7,29.52,WNW,292,1.1,1.1,69,0.00,,,0.00,WUHU21623XXSP,2013-01-21 03:23:00,
2013-01-20 21:28:00,14.9,6.5,29.52,NW,315,3.4,3.4,69,0.00,,,0.00,WUHU21623XXSP,2013-01-21 03:28:00,
2013-01-20 21:33:00,14.7,6.4,29.52,WNW,292,2.9,3.4,69,0.00,,,0.00,WUHU21623XXSP,2013-01-21 03:33:00,
2013-01-20 21:38:00,14.7,6.4,29.52,West,270,0.0,2.9,69,0.00,,,0.00,WUHU21623XXSP,2013-01-21 03:38:00,
2013-01-20 21:43:00,14.7,6.7,29.52,WNW,292,0.0,0.0,70,0.00,,,0.00,WUHU21623XXSP,2013-01-21 03:43:00,
2013-01-20 21:48:00,14.7,6.7,29.52,West,270,0.0,0.0,70,0.00,,,0.00,WUHU21623XXSP,2013-01-21 03:48:00,
2013-01-20 21:53:00,14.7,6.7,29.53,West,270,0.0,0.0,70,0.00,,,0.00,WUHU21623XXSP,2013-01-21 03:53:00,
2013-01-20 21:58:00,14.7,6.7,29.52,West,270,0.0,0.0,70,0.00,,,0.00,WUHU21623XXSP,2013-01-21 03:58:00,
2013-01-20 22:03:00,14.7,6.7,29.53,West,270,2.9,2.9,70,0.00,,,0.00,WUHU21623XXSP,2013-01-21 04:03:00,
2013-01-20 22:08:00,14.7,7.0,29.52,WNW,292,2.2,3.8,71,0.00,,,0.00,WUHU21623XXSP,2013-01-21 04:08:00,
2013-01-20 22:13:00,14.7,7.0,29.53,NW,315,0.0,3.8,71,0.00,,,0.00,WUHU21623XXSP,2013-01-21 04:13:00,
2013-01-20 22:57:00,13.6,5.7,29.51,West,270,5.8,5.8,70,0.00,,,0.00,WUHU21623XXSP,2013-01-21 04:57:00,
2013-01-20 23:57:00,13.3,5.7,29.49,WNW,293,4.7,4.7,71,0.00,,,0.00,WUHU21623XXSP,2013-01-21 05:57:00,